Regional Weather Roundup
Issued by NWS

Home | Current Version | Previous Version | Graphics & Text | Print | Product List | Glossary On
Versions: 1 2 3 4 5 6 7 8 9 10 11 12 13 14 15 16 17 18 19 20 21 22 23 24 25 26 27
000
ASUS45 KTFX 271510
RWRMT
MONTANA REGIONAL WEATHER ROUNDUP
NATIONAL WEATHER SERVICE GREAT FALLS MT
900 AM MDT WED JUL 27 2016

NOTE: "FAIR" INDICATES FEW OR NO CLOUDS BELOW 12000 FEET WITH NO
SIGNIFICANT WEATHER AND/OR OBSTRUCTIONS TO VISIBILITY.

MTZ001>007-043-271600-
WEST OF THE DIVIDE

CITY           SKY/WX    TMP DP  RH WIND       PRES   REMARKS
KALISPELL      MOSUNNY   69  53  56 NE12G17   30.13S
MISSOULA       MOSUNNY   66  52  60 CALM      30.15S
BUTTE          MOSUNNY   58  40  51 CALM      30.26F
MULLAN PASS    SUNNY     65  47  52 SE5       30.26R
ANACONDA         N/A     66  45  45 CALM      30.22S
DEER LODGE       N/A     61  48  63 CALM      30.25S
EUREKA           N/A     64  54  68 CALM      30.16S
HAMILTON         N/A     64  46  52 S3        30.16S
LIBBY            N/A     64  52  63 CALM      30.15R
PLAINS           N/A     65  51  60 CALM      30.12R
RONAN            N/A     69  57  65 N5        30.17S
THOMPSON FALLS   N/A     64  54  70 CALM      30.15S
$$

MTZ008-052>055-271600-
SOUTHWEST MONTANA

CITY           SKY/WX    TMP DP  RH WIND       PRES   REMARKS
BOZEMAN        SUNNY     64  49  57 CALM      30.22R
DILLON         SUNNY     60  47  61 SW7       30.24S
W YELLOWSTONE  SUNNY     55  37  50 CALM      30.34S
ENNIS          SUNNY     63  41  45 N5        30.29S
THREE FORKS      N/A     64  53  67 CALM      30.18R
TWIN BRIDGES     N/A     58  45  62 S6        30.20S
$$

MTZ009-010-012-014-046-048-049-054-271600-
EAST SLOPES AND CENTRAL MONTANA

CITY           SKY/WX    TMP DP  RH WIND       PRES   REMARKS
CUT BANK       MOSUNNY   63  54  72 CALM      30.21R
GREAT FALLS    SUNNY     65  54  67 VRB5      30.19R
MALMSTROM AFB  SUNNY     63  55  74 W2        30.19R
HELENA         SUNNY     65  52  62 CALM      30.19R
CHOTEAU          N/A     63  55  77 CALM      30.23R
CONRAD           N/A     63  61  93 E2        30.20R
$$

MTZ011-013-016-021-045-047-050-051-271600-
NORTH CENTRAL MONTANA

CITY           SKY/WX    TMP DP  RH WIND       PRES   REMARKS
HAVRE          CLOUDY    64  60  87 VRB3      30.16R
LEWISTOWN      PTSUNNY   61  55  81 W6        30.20S
N BAR RANCH      N/A     66  54  63 CALM      30.21S
CHINOOK          N/A     66  61  82 E5        30.15R
$$

MTZ017>020-022>027-061-062-271600-
NORTHEAST MONTANA

CITY           SKY/WX    TMP DP  RH WIND       PRES   REMARKS
GLASGOW        CLOUDY    64  61  90 NE6       30.13R
JORDAN           N/A     69  61  75 NE7       30.13R
SIDNEY         CLOUDY    66  60  81 N6        30.13R
WOLF POINT     LGT RAIN  66  63  90 E7        30.13F
PLENTYWOOD       N/A     66  57  72 CALM      30.15R
SCOBEY           N/A     63  54  72 E2        30.14R
$$

MTZ028>42-056>058-271600-
SOUTHCENTRAL AND SOUTHEAST MONTANA

CITY           SKY/WX    TMP DP  RH WIND       PRES   REMARKS
BAKER          CLOUDY    66  60  81 SE13      30.13F
BILLINGS       MOSUNNY   69  57  65 N8        30.16R
LIVINGSTON     SUNNY     65  46  50 N5        30.20S
MILES CITY     CLOUDY    66  61  84 SE3       30.11R
EKALAKA          N/A     67  60  78 SE5       30.13R
FORSYTH          N/A     66  64  94 SW6       30.11R
LAUREL           N/A     68  56  65 NE2       30.14R
ROUNDUP          N/A     69  58  68 CALM      30.06F
$$

REGIONAL REPORTS...DAKOTAS

CITY           SKY/WX    TMP DP  RH WIND       PRES   REMARKS
WILLISTON      CLOUDY    68  56  65 N6        30.13S
MINOT          CLOUDY    70  59  68 SE5       30.14R
DICKINSON      PTSUNNY   64  60  87 CALM      30.13R
BEACH            N/A     66  63  88 E7        30.17R
CROSBY           N/A     64  64 100 E9        30.16S
WATFORD CITY     N/A    N/A N/A N/A MISG        N/A
BISMARCK       MOSUNNY   70  62  76 VRB3      30.11S
GRAND FORKS    MOSUNNY   69  60  73 N12       30.06R
FARGO          SUNNY     71  60  68 N15       30.03R
BUFFALO SD       N/A     64  62  93 E14       30.07R
RAPID CITY     CLOUDY    69  62  78 CALM      30.12S
$$

REGIONAL REPORTS...WYOMING/IDAHO/WASHINGTON

CITY           SKY/WX    TMP DP  RH WIND       PRES   REMARKS
GILLETTE       SUNNY     73  52  47 S9        30.16S
SHERIDAN       SUNNY     73  54  51 VRB3      30.14S
BUFFALO WY     SUNNY     71  50  47 SE7       30.20S
CODY           SUNNY     70  45  40 SW3       30.22R
YELLOWSTONE LA   N/A     56  46  69 VRB3      30.41S
IDAHO FALLS    SUNNY     62  47  57 N8        30.19R
SALMON         SUNNY     57  45  62 CALM      30.19S
BOISE          SUNNY     76  42  29 SE5       30.06R
SPOKANE        MOSUNNY   69  53  56 NE8       30.08R
$$

REGIONAL REPORTS...ALBERTA

CITY           SKY/WX    TMP DP  RH WIND       PRES   REMARKS
EDMONTON       MOSUNNY   72  63  73 CALM      30.12R
CALGARY        PTSUNNY   68  52  56 N3        30.20R
LETHBRIDGE     PTSUNNY   64  59  82 VRB2      30.17S
MEDICINE HAT   PTSUNNY   66  63  88 CALM      30.15R
WATERTON GATE    N/A     66  52  59 S1          N/A
CARDSTON         N/A     57  54  88 SE2         N/A
MILK RIVER       N/A     66  57  72 NW5         N/A
$$

REGIONAL REPORTS...SASKATCHEWAN

CITY           SKY/WX    TMP DP  RH WIND       PRES   REMARKS
SWIFT CURRENT  MOSUNNY   63  55  77 E12       30.17R
REGINA         PTSUNNY   66  57  72 SE5       30.18R
SASKATOON      MOSUNNY   68  52  56 S6        30.19S
VAL MARIE        N/A     63  59  88 E1          N/A
ROCKGLEN         N/A     63  57  82 E1          N/A
ASSINIBOIA       N/A     68  63  83 W2          N/A
$$




USA.gov is the U.S. government's official web portal to all federal, state and local government web resources and services.